(155382) = 1993 TZ15 = 1998 RO7

Discovered at La Silla on 1993-10-09 by E. W. Elst.

Orbit

Orbit type: Main Belt

Note: WebGL enabled browser required.

epoch2023-02-25.0
epoch JD2460000.5
perihelion date2020-01-17.34519
perihelion JD2458865.84519
argument of perihelion (°)201.49259
ascending node (°)153.02245
inclination (°)1.22097
eccentricity0.1570054
perihelion distance (AU)2.5689637
Tisserand w.r.t. Jupiter3.2
ΔV w.r.t. Earth (km/sec)10.1
semimajor axis (AU)3.0474261
mean anomaly (°)210.21700
mean daily motion (°/day)0.18526960
aphelion distance (AU)3.526
period (years)5.32
P-vector [x]0.99538358
P-vector [y]-0.08465964
P-vector [z]-0.04521359
Q-vector [x]0.09548866
Q-vector [y]0.92099507
Q-vector [z]0.37769033
absolute magnitude15.77
phase slope0.15
uncertainty0
referenceMPO 745323
observations used549
oppositions17
arc length (days)10820
first opposition used1993
last opposition used2023
residual rms (arc-secs)0.72
perturbers coarse indicatorM-v
perturbers precise indicator003Ek
first observation date used1993-10-09.0
last observation date used2023-05-25.0
computer nameMPCLINUX
JD of orbit computation2456966.758574
perihelion JD uncertainty (days)5.4660E-05
argument of perihelion uncertainty (°)1.8273E-04
ascending node uncertainty (°)1.8238E-04
inclination uncertainty (°)4.6305E-06
eccentricity uncertainty 4.3708E-08
perihelion distance uncertainty (AU)1.3432E-07
Minimum Orbit Intersection Distances (in AU)
for orbit epoch: 2460000.5, reference: E2023-KF3
Mercury2.19489
Venus1.84339
Earth1.56249
Mars1.17831
Jupiter1.90211
Saturn5.81282
Uranus14.9193
Neptune27.0287

Observations

555 total observations over interval: 1993 10 09.14861 – 2023 05 25.298520
These data are available for download (format description).

Date (UT) J2000 RA J2000 Dec Magn Location Ref
1993 10 09.14861 01 11 50.03 +06 06 30.3 18.5   809 – European Southern Observatory, La Silla MPC 22921
1993 10 09.16181 01 11 49.39 +06 06 26.2   809 – European Southern Observatory, La Silla MPC 22921
1993 10 09.17500 01 11 48.76 +06 06 20.9   809 – European Southern Observatory, La Silla MPC 22921
1993 10 10.11979 01 11 05.48 +06 01 33.4 18.7   809 – European Southern Observatory, La Silla MPS 5829
1993 10 10.14063 01 11 04.35 +06 01 25.9   809 – European Southern Observatory, La Silla MPS 5829
1993 10 10.16146 01 11 03.38 +06 01 20.5   809 – European Southern Observatory, La Silla MPS 5829
1993 10 11.11319 01 10 19.88 +05 56 31.0   809 – European Southern Observatory, La Silla MPC 22921
1993 10 11.12639 01 10 19.16 +05 56 25.5   809 – European Southern Observatory, La Silla MPC 22921
1993 10 11.13958 01 10 18.54 +05 56 22.6   809 – European Southern Observatory, La Silla MPC 22921
1993 10 20.15625 01 03 31.34 +05 11 51.3 18.6   809 – European Southern Observatory, La Silla MPC 23080
1993 10 20.16944 01 03 30.78 +05 11 48.3   809 – European Southern Observatory, La Silla MPC 23080
1993 10 20.18264 01 03 30.11 +05 11 44.1   809 – European Southern Observatory, La Silla MPC 23080
1998 09 12.28063 22 38 02.51 -08 58 14.4 19.1 V 691 – Steward Observatory, Kitt Peak-Spacewatch MPS 2287
1998 09 12.30208 22 38 01.57 -08 58 20.3 19.1 V 691 – Steward Observatory, Kitt Peak-Spacewatch MPS 2287
1998 09 12.32330 22 38 00.64 -08 58 26.0 19.1 V 691 – Steward Observatory, Kitt Peak-Spacewatch MPS 2287
1998 09 19.19653 22 33 28.83 -09 28 53.2 19.4 V 691 – Steward Observatory, Kitt Peak-Spacewatch MPS 2287
1998 09 19.23493 22 33 27.31 -09 29 02.5 19.3 V 691 – Steward Observatory, Kitt Peak-Spacewatch MPS 2287
1998 09 19.25658 22 33 26.49 -09 29 08.1 19.4 V 691 – Steward Observatory, Kitt Peak-Spacewatch MPS 2287
1998 09 24.16823 22 30 38.61 -09 47 57.8 19.4 V 691 – Steward Observatory, Kitt Peak-Spacewatch MPS 2287
1998 09 24.18919 22 30 37.91 -09 48 02.1 19.3 V 691 – Steward Observatory, Kitt Peak-Spacewatch MPS 2287
1998 09 24.21020 22 30 37.22 -09 48 06.5 19.4 V 691 – Steward Observatory, Kitt Peak-Spacewatch MPS 2287
2004 09 17.40445 04 36 18.21 +20 37 37.2 20.9 V 291 – LPL/Spacewatch II MPS 163536
2004 09 17.43175 04 36 19.12 +20 37 38.6 21.0 V 291 – LPL/Spacewatch II MPS 163536
2004 09 17.45741 04 36 20.02 +20 37 39.6 20.9 V 291 – LPL/Spacewatch II MPS 163536
2004 11 10.39723 04 28 57.78 +19 55 21.0 19.8 R 695 – Kitt Peak MPS 120299
2004 11 10.40859 04 28 57.23 +19 55 19.5 19.8 V 691 – Steward Observatory, Kitt Peak-Spacewatch MPS 120299
2004 11 10.43478 04 28 55.94 +19 55 16.4 19.8 V 691 – Steward Observatory, Kitt Peak-Spacewatch MPS 120299
2004 11 10.46108 04 28 54.66 +19 55 13.1 19.9 V 691 – Steward Observatory, Kitt Peak-Spacewatch MPS 120299
2004 11 10.47276 04 28 54.09 +19 55 11.7   695 – Kitt Peak MPS 120299
2005 10 24.59237 09 34 47.569 +13 49 42.46 21.0 R 568 – Maunakea MPS 163536
2005 10 24.59752 09 34 47.848 +13 49 41.13 21.1 R 568 – Maunakea MPS 163536
2005 10 24.60270 09 34 48.110 +13 49 39.79 21.0 R 568 – Maunakea MPS 163536
2006 01 21.50546 09 49 07.64 +12 44 14.4 20.6 V G96 – Mt. Lemmon Survey MPS 163536
2006 01 21.51285 09 49 07.32 +12 44 15.7 21.0 V G96 – Mt. Lemmon Survey MPS 163536
2006 01 21.52022 09 49 07.03 +12 44 17.7 20.9 V G96 – Mt. Lemmon Survey MPS 163536
2006 01 21.52764 09 49 06.70 +12 44 18.8 22.2 V G96 – Mt. Lemmon Survey MPS 163536
2006 02 01.21533 09 41 24.93 +13 26 06.9 21.1 V 691 – Steward Observatory, Kitt Peak-Spacewatch MPS 163205
2006 02 01.23268 09 41 24.13 +13 26 11.5 20.9 V 691 – Steward Observatory, Kitt Peak-Spacewatch MPS 163205
2006 02 01.25005 09 41 23.30 +13 26 15.2 20.8 V 691 – Steward Observatory, Kitt Peak-Spacewatch MPS 163205
2006 02 05.33220 09 38 11.47 +13 43 17.5 20.6 V G96 – Mt. Lemmon Survey MPS 163205
2006 02 05.33882 09 38 11.18 +13 43 19.5 20.5 V G96 – Mt. Lemmon Survey MPS 163205
2006 02 05.34568 09 38 10.86 +13 43 21.2 20.6 V G96 – Mt. Lemmon Survey MPS 163205
2006 02 05.35235 09 38 10.50 +13 43 23.0 20.1 V G96 – Mt. Lemmon Survey MPS 163205
2007 03 13.34021 13 31 43.54 -08 24 30.9 21.2 V 691 – Steward Observatory, Kitt Peak-Spacewatch MPS 202832
2007 03 13.35789 13 31 43.02 -08 24 28.2 21.1 V 691 – Steward Observatory, Kitt Peak-Spacewatch MPS 202832
2007 03 13.37557 13 31 42.46 -08 24 24.5 21.3 V 691 – Steward Observatory, Kitt Peak-Spacewatch MPS 202832
2007 03 20.35779 13 27 54.03 -07 59 19.1 20.0 V G96 – Mt. Lemmon Survey MPS 204449
2007 03 20.36553 13 27 53.71 -07 59 16.3 21.2 V G96 – Mt. Lemmon Survey MPS 204449
2007 03 20.37332 13 27 53.46 -07 59 15.0 21.1 V G96 – Mt. Lemmon Survey MPS 204449
2007 03 20.38106 13 27 53.17 -07 59 12.7 20.9 V G96 – Mt. Lemmon Survey MPS 204449
2007 04 07.33155 13 15 36.75 -06 40 21.1 20.3 V G96 – Mt. Lemmon Survey MPS 206109
2007 04 07.33912 13 15 36.43 -06 40 19.0 20.6 V G96 – Mt. Lemmon Survey MPS 206109
2007 04 07.34677 13 15 36.10 -06 40 16.7 19.9 V G96 – Mt. Lemmon Survey MPS 206109
2007 04 07.35431 13 15 35.74 -06 40 14.4 20.2 V G96 – Mt. Lemmon Survey MPS 206109
2007 04 16.29746 13 08 58.16 -05 58 14.4 20.6 V G96 – Mt. Lemmon Survey MPS 206764
2007 04 16.30367 13 08 57.87 -05 58 12.6 20.4 V G96 – Mt. Lemmon Survey MPS 206764
2007 04 16.30984 13 08 57.62 -05 58 11.1 20.6 V G96 – Mt. Lemmon Survey MPS 206764
2007 04 16.31603 13 08 57.30 -05 58 09.3 20.6 V G96 – Mt. Lemmon Survey MPS 206764
2009 09 14.46833 02 25 00.42 +12 58 57.2 19.9 V 691 – Steward Observatory, Kitt Peak-Spacewatch MPS 295627
2009 09 14.48603 02 25 00.25 +12 58 55.6 20.0 V 691 – Steward Observatory, Kitt Peak-Spacewatch MPS 295627
2009 09 14.50370 02 25 00.06 +12 58 54.0 20.0 V 691 – Steward Observatory, Kitt Peak-Spacewatch MPS 295627
2009 09 22.44594 02 23 06.24 +12 43 43.2 20.6 V 691 – Steward Observatory, Kitt Peak-Spacewatch MPS 296721
2009 09 22.46363 02 23 05.81 +12 43 40.2 19.8 V 691 – Steward Observatory, Kitt Peak-Spacewatch MPS 296721
2009 09 22.48129 02 23 05.43 +12 43 37.8 19.9 V 691 – Steward Observatory, Kitt Peak-Spacewatch MPS 296721
2009 09 25.28597 02 22 02.49 +12 36 24.7 19.4   704 – Lincoln Laboratory ETS, New Mexico MPS 297681
2009 09 25.29797 02 22 02.20 +12 36 24.0 19.8   704 – Lincoln Laboratory ETS, New Mexico MPS 297681
2009 09 25.31023 02 22 01.87 +12 36 20.6 20.2   704 – Lincoln Laboratory ETS, New Mexico MPS 297681
2009 09 25.32223 02 22 01.52 +12 36 20.5 20.0   704 – Lincoln Laboratory ETS, New Mexico MPS 297681
2009 09 26.41531 02 21 33.63 +12 33 14.8 19.8 V 691 – Steward Observatory, Kitt Peak-Spacewatch MPS 297681
2009 09 26.43295 02 21 33.14 +12 33 11.7 19.7 V 691 – Steward Observatory, Kitt Peak-Spacewatch MPS 297681
2009 09 26.45062 02 21 32.62 +12 33 08.5 19.7 V 691 – Steward Observatory, Kitt Peak-Spacewatch MPS 297681
2009 10 02.26120 02 18 38.12 +12 14 38.6 19.2 V G96 – Mt. Lemmon Survey MPS 298190
2009 10 02.26869 02 18 37.87 +12 14 37.2 19.4 V G96 – Mt. Lemmon Survey MPS 298190
2009 10 02.27641 02 18 37.62 +12 14 35.7 19.5 V G96 – Mt. Lemmon Survey MPS 298190
2009 10 02.28418 02 18 37.33 +12 14 34.4 19.1 V G96 – Mt. Lemmon Survey MPS 298190
2009 10 11.94161 02 12 20.69 +11 36 54.4 18.7 V J75 – OAM Observatory, La Sagra MPS 299158
2009 10 11.95390 02 12 20.19 +11 36 51.4 19.2 V J75 – OAM Observatory, La Sagra MPS 299158
2009 10 11.96625 02 12 19.61 +11 36 48.0 19.2 V J75 – OAM Observatory, La Sagra MPS 299158
2009 10 13.98515 02 10 50.24 +11 28 05.4 19.3 V J75 – OAM Observatory, La Sagra MPS 299158
2009 10 13.99748 02 10 49.64 +11 28 02.0 19.2 V J75 – OAM Observatory, La Sagra MPS 299158
2009 10 14.00980 02 10 49.06 +11 27 59.1 18.9 V J75 – OAM Observatory, La Sagra MPS 299158
2009 10 18.30932 02 07 30.43 +11 08 48.7 19.0 V G96 – Mt. Lemmon Survey MPS 300399
2009 10 18.31657 02 07 30.10 +11 08 46.6 19.0 V G96 – Mt. Lemmon Survey MPS 300399
2009 10 18.32424 02 07 29.71 +11 08 44.8 18.9 V G96 – Mt. Lemmon Survey MPS 300399
2009 10 18.33178 02 07 29.35 +11 08 42.9 18.9 V G96 – Mt. Lemmon Survey MPS 300399
2009 10 21.25654 02 05 09.99 +10 55 23.1 19.1 V 703 – Catalina Sky Survey MPS 300399
2009 10 21.26323 02 05 09.60 +10 55 20.8 18.8 V 703 – Catalina Sky Survey MPS 300399
